Flag for France Weather past 2 weeks in Reims, France

Now
36 °F

Clear.


Feels Like: 29 °F
Forecast: 33 / 47 °F
Wind: 8 mph from West

Location: Chalons-Vatry

Current Time: Mar 4, 2015 at 1:16:47 AM

Latest Report: Mar 4, 2015 at 12:30 AM


Visibility: N/A

Pressure: 30.24 "Hg

Humidity: 93%

Dew point: 34 °F

Location of ReimsLocation

Historic Weather in Reims — Graph

°F

Reims temperature yesterday

Maximum temperature yesterday: 50 °F (at 1:00 PM)
Minimum temperature yesterday: 32 °F (at 1:30 AM)
Average temperature yesterday: 40 °F

Past Weeks' High & Low Weather Summary

 TemperatureHumidityPressure
High54 °F (Mar 1, 2:00 PM)100% (Feb 17, 12:00 AM)30.72 "Hg (Feb 17, 12:00 AM)
Low27 °F (Feb 28, 6:00 AM)53% (Feb 28, 4:30 PM)29.45 "Hg (Feb 23, 8:00 AM)
Average40 °F86%30.01 "Hg
* Reported Midnight between Feb 16 and Feb 17 — Midnight between Mar 3 and Mar 4, Reims, Weather by CustomWeather, © 2015

Note: Actual official high and low records may vary slightly from our data, if they occured in-between our weather recording intervals... More about our weather records

Advertising

Reims weather history for previous 24 hours

 ConditionsComfort  
Time TempWeatherWind HumidityBarometerVisibility
12:00 AM
Wed, Mar 4
37 °FClear.8 mph93%30.24 "Hg5 mi
11:30 PM
Tue, Mar 3
37 °FClear.7 mph93%30.21 "Hg4 mi
11:00 PM39 °FClear.9 mph93%30.21 "HgN/A
10:30 PM39 °FClear.12 mph93%30.21 "HgN/A
10:00 PM39 °FClear.12 mph93%30.21 "HgN/A
9:30 PM41 °FClear.12 mph87%30.18 "HgN/A
9:00 PM41 °FClear.10 mph87%30.18 "HgN/A
8:30 PM41 °FClear.9 mph87%30.18 "HgN/A
8:00 PM41 °FPartly cloudy.8 mph87%30.15 "HgN/A
7:30 PM41 °FRain. Partly cloudy.17 mph81%30.18 "Hg6 mi
7:00 PM41 °FLight rain. Broken clouds.13 mph93%30.15 "HgN/A
6:30 PM45 °FBroken clouds.17 mph87%30.12 "HgN/A
6:00 PM45 °FPartly sunny.18 mph87%30.12 "HgN/A
5:30 PM45 °FPartly sunny.21 mph87%30.12 "HgN/A
5:00 PM45 °FLight rain. Mostly cloudy.20 mph87%30.12 "HgN/A
4:30 PM46 °FMostly cloudy.17 mph82%30.12 "HgN/A
4:00 PM48 °FPartly sunny.18 mph71%30.12 "HgN/A
3:30 PM50 °FPartly sunny.18 mph67%30.12 "HgN/A
3:00 PM50 °FBroken clouds.22 mph62%30.12 "HgN/A
2:30 PM50 °FPartly sunny.21 mph62%30.12 "HgN/A
2:00 PM50 °FBroken clouds.21 mph62%30.12 "HgN/A
1:30 PM50 °FPartly sunny.22 mph62%30.15 "HgN/A
1:00 PM50 °FOvercast.22 mph62%30.15 "HgN/A
12:30 PM48 °FPartly sunny.17 mph66%30.15 "HgN/A
12:00 PM46 °FScattered clouds.21 mph71%30.15 "HgN/A
11:30 AM46 °FPassing clouds.18 mph76%30.15 "HgN/A
11:00 AM45 °FPartly sunny.17 mph81%30.18 "HgN/A
10:30 AM43 °FPartly sunny.15 mph87%30.18 "HgN/A
10:00 AM41 °FClear.14 mph87%30.18 "HgN/A
9:30 AM39 °FClear.12 mph81%30.18 "HgN/A
9:00 AM37 °FClear.12 mph81%30.18 "HgN/A
8:30 AM36 °FClear.9 mph87%30.15 "HgN/A
8:00 AM34 °FPassing clouds.8 mph87%30.15 "HgN/A
7:30 AM32 °FClear.8 mph93%30.15 "HgN/A
7:00 AM34 °FClear.6 mph87%30.15 "HgN/A
6:30 AM34 °FPartly cloudy.7 mph87%30.15 "HgN/A
6:00 AM34 °FOvercast.6 mph87%30.15 "HgN/A
5:30 AM34 °FClear.6 mph87%30.18 "HgN/A
5:00 AM34 °FClear.6 mph87%30.18 "HgN/A
4:30 AM34 °FClear.7 mph87%30.18 "HgN/A
4:00 AM34 °FMostly cloudy.6 mph87%30.18 "HgN/A
3:30 AM34 °FClear.7 mph81%30.18 "HgN/A
3:00 AM34 °FClear.7 mph81%30.18 "HgN/A
2:30 AM34 °FClear.8 mph81%30.18 "HgN/A
2:00 AM32 °FClear.9 mph87%30.18 "HgN/A
1:30 AM32 °FClear.7 mph87%30.18 "HgN/A
1:00 AM34 °FClear.5 mph81%30.18 "HgN/A
Weather by CustomWeather, © 2015

See weather overviewHow to use our weather pages